User: anonymous   Login
Location: Most
(50.5133°N, 13.6207°E)
Time: 04:52:08
(UTC+01:00)
Language:

JY1SAT - Orbit

View from above orbital plane
View from above orbital plane
View from above satellite
View from above satellite

Ground track
Ground track

The orbit data is extracted from the following two-line orbital elements,

1 43803U 18099AX  21332.40831203  .00001449  00000-0  13366-3 0  9997
2 43803  97.6468  39.3675 0014119 216.5544 143.4715 14.96122662163000
Epoch (UTC): 28 November 2021 09:47:58
Eccentricity: 0.0014119
inclination: 97.6468°
perigee height: 569 km
apogee height: 589 km
right ascension of ascending node: 39.3675°
argument of perigee: 216.5544°
revolutions per day: 14.96122662
mean anomaly at epoch: 143.4715°
orbit number at epoch: 16300

The dashed part of the orbit path shows where the satellite is in the earth's shadow,  

DLR